SAS936 KSFO-EKCH

Flight info

Callsign SAS936
Flight time N/A
Altitude 35000
Route TRUKN2 ORRCA Q120 BETBE DCT GASSI J7 REO J537 MLP J540 YQL Q896 MEETO Q959 YVC J540 YZS DCT 67N071W/M078F350 69N056W 69N040W 68N024W 66N010W DCT ISVIG/N0443F350 DCT BETRO DCT TINIG DCT NIROD DCT ERNOV
Aircraft A343/H-SDE3FGHIJ3J4J5M1P2RWXYZ/LB1D1

Departure

Time N/A
Airport San Francisco International Airport (KSFO)

Arrival

Time 2026-05-04 19:06
Airport Copenhagen Kastrup Airport (EKCH)
Time Latitude Longitude Altitude Speed Heading
2026-05-04 15:03 68.79424 -58.35930 35427 ft 522 kts 75°
2026-05-04 15:03 68.80344 -58.26222 35427 ft 522 kts 75°
2026-05-04 15:04 68.82165 -58.06801 35425 ft 522 kts 75°
2026-05-04 15:04 68.83964 -57.87347 35422 ft 522 kts 75°
2026-05-04 15:05 68.85738 -57.67893 35700 ft 520 kts 75°
2026-05-04 15:05 68.86616 -57.58167 35927 ft 520 kts 75°
2026-05-04 15:05 68.87487 -57.48448 36125 ft 519 kts 75°
2026-05-04 15:06 68.88351 -57.38737 36312 ft 518 kts 75°
2026-05-04 15:06 68.89207 -57.29039 36512 ft 517 kts 75°
2026-05-04 15:06 68.90056 -57.19354 36707 ft 516 kts 75°
2026-05-04 15:07 68.91733 -57.00012 37107 ft 514 kts 75°
2026-05-04 15:07 68.92560 -56.90378 37314 ft 513 kts 76°
2026-05-04 15:07 68.93382 -56.80720 37394 ft 514 kts 76°
2026-05-04 15:08 68.94745 -56.64568 37401 ft 519 kts 76°
2026-05-04 15:08 68.96384 -56.44867 37400 ft 526 kts 76°
2026-05-04 15:09 68.98276 -56.21730 37397 ft 527 kts 76°
2026-05-04 15:09 68.99844 -56.01761 37393 ft 528 kts 80°
2026-05-04 15:10 69.01219 -55.74612 37395 ft 529 kts 82°
2026-05-04 15:11 69.02559 -55.44207 37388 ft 529 kts 82°
2026-05-04 15:11 69.03427 -55.23827 37387 ft 529 kts 83°
2026-05-04 15:12 69.04278 -55.03439 37384 ft 529 kts 83°
2026-05-04 15:12 69.05109 -54.82993 37392 ft 529 kts 83°
2026-05-04 15:13 69.05916 -54.62506 37372 ft 531 kts 83°
2026-05-04 15:13 69.06701 -54.41941 37384 ft 532 kts 83°
2026-05-04 15:14 69.07461 -54.21373 37381 ft 532 kts 83°
2026-05-04 15:14 69.08196 -54.00782 37373 ft 532 kts 83°
2026-05-04 15:15 69.08906 -53.80184 37375 ft 532 kts 84°
2026-05-04 15:15 69.09592 -53.59578 37357 ft 532 kts 84°
2026-05-04 15:16 69.10575 -53.28597 37372 ft 533 kts 84°
2026-05-04 15:17 69.11506 -52.97490 37363 ft 534 kts 84°
2026-05-04 15:17 69.12377 -52.66476 37368 ft 534 kts 84°
2026-05-04 15:18 69.12928 -52.45704 37357 ft 535 kts 85°
2026-05-04 15:19 69.13709 -52.14502 37361 ft 535 kts 85°
2026-05-04 15:19 69.14434 -51.83238 37359 ft 535 kts 85°
2026-05-04 15:20 69.14886 -51.62378 37356 ft 536 kts 85°
2026-05-04 15:20 69.15314 -51.41492 37409 ft 536 kts 85°
2026-05-04 15:21 69.15716 -51.20599 37425 ft 536 kts 85°
2026-05-04 15:22 69.16271 -50.89246 37401 ft 536 kts 86°
2026-05-04 15:22 69.16770 -50.57828 37344 ft 537 kts 86°
2026-05-04 15:23 69.17071 -50.36865 37357 ft 537 kts 86°
2026-05-04 15:23 69.17346 -50.15888 37347 ft 537 kts 86°
2026-05-04 15:24 69.17821 -49.73908 37369 ft 537 kts 87°
2026-05-04 15:25 69.18018 -49.53055 37365 ft 537 kts 87°
2026-05-04 15:26 69.18269 -49.21526 37404 ft 538 kts 88°
2026-05-04 15:26 69.18463 -48.89980 37440 ft 538 kts 88°
2026-05-04 15:27 69.18598 -48.58443 37442 ft 538 kts 88°
2026-05-04 15:28 69.18676 -48.26916 37438 ft 538 kts 88°
2026-05-04 15:29 69.18696 -47.95374 37458 ft 538 kts 89°
2026-05-04 15:30 69.18519 -47.21703 37456 ft 538 kts 89°
2026-05-04 15:31 69.18347 -46.90183 37441 ft 538 kts 89°
2026-05-04 15:32 69.17933 -46.37753 37438 ft 538 kts 90°
2026-05-04 15:34 69.17358 -45.85160 37432 ft 538 kts 90°
2026-05-04 15:34 69.16936 -45.53628 37441 ft 538 kts 91°
2026-05-04 15:35 69.16456 -45.22089 37432 ft 539 kts 91°
2026-05-04 15:36 69.15917 -44.90504 37432 ft 540 kts 91°
2026-05-04 15:36 69.15525 -44.69455 37433 ft 540 kts 92°
2026-05-04 15:37 69.15108 -44.48411 37448 ft 540 kts 92°
2026-05-04 15:37 69.14666 -44.27396 37427 ft 539 kts 92°
2026-05-04 15:38 69.14201 -44.06556 37427 ft 538 kts 92°
2026-05-04 15:38 69.13709 -43.85598 37420 ft 538 kts 92°
2026-05-04 15:39 69.13191 -43.64647 37425 ft 539 kts 93°
2026-05-04 15:40 69.12366 -43.33237 37417 ft 539 kts 93°
2026-05-04 15:40 69.11784 -43.12310 37423 ft 539 kts 93°
2026-05-04 15:41 69.11176 -42.91368 37451 ft 539 kts 94°
2026-05-04 15:41 69.10544 -42.70485 37409 ft 538 kts 94°
2026-05-04 15:42 69.09886 -42.49609 37415 ft 538 kts 94°
2026-05-04 15:42 69.09203 -42.28740 37415 ft 538 kts 94°
2026-05-04 15:43 69.08494 -42.07866 37407 ft 538 kts 94°
2026-05-04 15:43 69.07760 -41.87021 37412 ft 539 kts 95°
2026-05-04 15:44 69.07006 -41.66319 37406 ft 539 kts 95°
2026-05-04 15:44 69.06222 -41.45497 37442 ft 539 kts 95°
2026-05-04 15:45 69.05411 -41.24672 37412 ft 539 kts 95°
2026-05-04 15:45 69.04576 -41.03885 37400 ft 538 kts 95°
2026-05-04 15:46 69.03716 -40.83098 37402 ft 539 kts 96°
2026-05-04 15:46 69.02831 -40.62342 37399 ft 539 kts 96°
2026-05-04 15:47 69.01920 -40.41596 37397 ft 539 kts 96°
2026-05-04 15:47 69.00984 -40.20853 37400 ft 539 kts 96°
2026-05-04 15:48 69.00096 -40.00115 37397 ft 539 kts 91°
2026-05-04 15:48 68.99538 -39.68817 37406 ft 538 kts 91°
2026-05-04 15:49 68.99219 -39.47969 37402 ft 538 kts 91°
2026-05-04 15:49 68.98872 -39.27132 37399 ft 538 kts 91°
2026-05-04 15:50 68.98492 -39.06308 37410 ft 538 kts 92°
2026-05-04 15:50 68.98082 -38.85487 37403 ft 538 kts 92°
2026-05-04 15:51 68.97647 -38.64662 37390 ft 538 kts 92°
2026-05-04 15:51 68.97186 -38.43828 37412 ft 539 kts 92°
2026-05-04 15:52 68.96700 -38.23030 37402 ft 539 kts 92°
2026-05-04 15:52 68.96189 -38.02231 37401 ft 539 kts 93°
2026-05-04 15:53 68.95653 -37.81430 37404 ft 539 kts 93°
2026-05-04 15:53 68.95091 -37.60650 37407 ft 539 kts 93°
2026-05-04 15:54 68.94509 -37.40014 37416 ft 539 kts 93°
2026-05-04 15:54 68.93896 -37.19247 37405 ft 538 kts 94°
2026-05-04 15:55 68.93259 -36.98509 37429 ft 539 kts 94°
2026-05-04 15:55 68.92597 -36.77768 37428 ft 539 kts 94°
2026-05-04 15:56 68.91909 -36.57032 37425 ft 539 kts 94°
2026-05-04 15:56 68.91196 -36.36312 37438 ft 539 kts 94°
2026-05-04 15:57 68.90458 -36.15603 37438 ft 539 kts 95°
2026-05-04 15:57 68.89695 -35.94919 37487 ft 539 kts 95°
2026-05-04 15:58 68.88908 -35.74272 37432 ft 537 kts 95°
2026-05-04 15:58 68.88097 -35.53684 37458 ft 537 kts 95°
2026-05-04 15:59 68.87404 -35.36549 37485 ft 538 kts 95°
2026-05-04 15:59 68.86546 -35.15953 37484 ft 538 kts 95°
2026-05-04 16:00 68.85664 -34.95375 37485 ft 538 kts 95°
2026-05-04 16:00 68.84757 -34.74802 37522 ft 538 kts 96°
2026-05-04 16:01 68.83824 -34.54244 37521 ft 538 kts 96°
2026-05-04 16:01 68.82869 -34.33762 37537 ft 535 kts 96°
2026-05-04 16:02 68.81893 -34.13361 37545 ft 536 kts 96°
2026-05-04 16:03 68.80380 -33.82735 37553 ft 536 kts 96°
2026-05-04 16:03 68.79341 -33.62347 37558 ft 536 kts 97°
2026-05-04 16:04 68.78278 -33.41972 37556 ft 536 kts 97°
2026-05-04 16:04 68.76638 -33.11484 37549 ft 534 kts 97°
2026-05-04 16:05 68.75518 -32.91247 37539 ft 534 kts 97°
2026-05-04 16:06 68.73792 -32.60926 37537 ft 534 kts 98°
2026-05-04 16:07 68.71409 -32.20587 37505 ft 533 kts 98°
2026-05-04 16:08 68.68930 -31.80314 37504 ft 534 kts 98°
2026-05-04 16:09 68.65699 -31.30204 37482 ft 534 kts 99°
2026-05-04 16:10 68.63004 -30.90129 37492 ft 534 kts 99°
2026-05-04 16:11 68.60218 -30.50210 37499 ft 533 kts 100°
2026-05-04 16:12 68.55864 -29.90557 37476 ft 533 kts 101°
2026-05-04 16:13 68.52844 -29.50922 37463 ft 533 kts 101°
2026-05-04 16:14 68.49747 -29.11582 37454 ft 531 kts 102°
2026-05-04 16:16 68.45741 -28.62503 37455 ft 531 kts 102°
2026-05-04 16:17 68.41588 -28.13549 37484 ft 533 kts 102°
2026-05-04 16:18 68.38160 -27.74497 37441 ft 531 kts 103°
2026-05-04 16:19 68.33754 -27.25905 37438 ft 531 kts 103°
2026-05-04 16:20 68.29203 -26.77467 37430 ft 533 kts 104°
2026-05-04 16:22 68.24508 -26.29181 37430 ft 532 kts 104°
2026-05-04 16:23 68.18705 -25.71656 37432 ft 533 kts 105°
2026-05-04 16:25 68.12680 -25.14205 37422 ft 532 kts 105°
2026-05-04 16:26 68.05421 -24.47742 37397 ft 532 kts 106°
2026-05-04 16:28 68.00054 -24.00353 37411 ft 533 kts 106°
2026-05-04 16:29 67.93851 -23.33351 37398 ft 533 kts 103°
2026-05-04 16:31 67.89257 -22.85691 37384 ft 533 kts 103°
2026-05-04 16:32 67.83564 -22.28785 37360 ft 533 kts 104°
2026-05-04 16:33 67.79652 -21.90924 37351 ft 532 kts 104°
2026-05-04 16:34 67.76673 -21.62721 37343 ft 531 kts 105°
2026-05-04 16:35 67.70547 -21.06331 37327 ft 534 kts 105°
2026-05-04 16:36 67.67407 -20.78220 37319 ft 533 kts 105°
2026-05-04 16:37 67.64232 -20.50287 37311 ft 532 kts 105°
2026-05-04 16:38 67.59922 -20.13149 37293 ft 532 kts 106°
2026-05-04 16:39 67.54396 -19.66751 37287 ft 534 kts 106°
2026-05-04 16:40 67.49876 -19.29762 37267 ft 534 kts 107°
2026-05-04 16:41 67.44124 -18.83849 37265 ft 534 kts 107°
2026-05-04 16:43 67.38228 -18.38055 37244 ft 533 kts 107°
2026-05-04 16:43 67.34636 -18.10742 37240 ft 533 kts 108°
2026-05-04 16:45 67.27312 -17.56350 37238 ft 533 kts 108°
2026-05-04 16:46 67.21081 -17.11371 37208 ft 532 kts 108°
2026-05-04 16:47 67.16001 -16.75521 37200 ft 533 kts 109°
2026-05-04 16:48 67.10856 -16.39931 37191 ft 532 kts 109°
2026-05-04 16:49 67.05634 -16.04497 37174 ft 531 kts 109°
2026-05-04 16:50 67.00784 -15.72191 37175 ft 531 kts 110°
2026-05-04 16:51 66.96761 -15.45814 37186 ft 531 kts 110°
2026-05-04 16:52 66.91341 -15.10859 37147 ft 529 kts 110°
2026-05-04 16:53 66.87235 -14.84799 37147 ft 529 kts 111°
2026-05-04 16:54 66.81687 -14.50146 37133 ft 530 kts 111°
2026-05-04 16:55 66.73233 -13.98527 37111 ft 529 kts 111°
2026-05-04 16:56 66.66053 -13.55737 37092 ft 529 kts 112°
2026-05-04 16:57 66.61690 -13.30185 37083 ft 530 kts 112°
2026-05-04 16:58 66.55800 -12.96211 37072 ft 530 kts 112°
2026-05-04 17:00 66.46831 -12.45574 37056 ft 530 kts 113°
2026-05-04 17:01 66.39236 -12.03671 37037 ft 530 kts 114°
2026-05-04 17:02 66.33098 -11.70431 37023 ft 530 kts 114°
2026-05-04 17:03 66.28430 -11.45512 37006 ft 530 kts 114°
2026-05-04 17:03 66.23725 -11.20701 37006 ft 529 kts 114°
2026-05-04 17:04 66.17407 -10.87855 36985 ft 529 kts 115°
2026-05-04 17:05 66.10997 -10.55050 36975 ft 531 kts 115°
2026-05-04 17:06 66.06140 -10.30534 36973 ft 530 kts 115°
2026-05-04 17:07 66.01807 -10.08908 36964 ft 529 kts 115°
2026-05-04 17:07 65.97884 -9.90100 36949 ft 530 kts 119°
2026-05-04 17:08 65.92185 -9.66894 36948 ft 531 kts 121°
2026-05-04 17:09 65.88355 -9.51432 36933 ft 532 kts 121°
2026-05-04 17:09 65.84555 -9.35932 36936 ft 532 kts 120°
2026-05-04 17:10 65.75060 -8.97412 36924 ft 532 kts 121°
2026-05-04 17:11 65.71220 -8.82035 36920 ft 532 kts 121°
2026-05-04 17:12 65.65433 -8.59069 36911 ft 533 kts 121°
2026-05-04 17:13 65.55661 -8.20829 36905 ft 533 kts 122°
2026-05-04 17:14 65.47830 -7.90652 36892 ft 533 kts 122°
2026-05-04 17:15 65.41893 -7.68046 36863 ft 533 kts 122°
2026-05-04 17:16 65.33904 -7.37981 36879 ft 535 kts 123°
2026-05-04 17:17 65.25850 -7.08084 36869 ft 534 kts 123°
2026-05-04 17:18 65.17741 -6.78382 36859 ft 534 kts 123°
2026-05-04 17:19 65.09594 -6.48933 36847 ft 536 kts 124°
2026-05-04 17:20 65.01350 -6.19529 36837 ft 536 kts 124°
2026-05-04 17:20 64.95124 -5.97573 36846 ft 536 kts 124°
2026-05-04 17:21 64.86780 -5.68486 36858 ft 536 kts 125°
2026-05-04 17:22 64.82583 -5.53996 36854 ft 537 kts 125°
2026-05-04 17:23 64.74159 -5.25194 36843 ft 537 kts 125°
2026-05-04 17:24 64.67782 -5.03634 36837 ft 537 kts 126°
2026-05-04 17:25 64.59231 -4.75047 36848 ft 537 kts 126°
2026-05-04 17:26 64.50659 -4.46748 36857 ft 537 kts 126°
2026-05-04 17:27 64.39836 -4.11522 36868 ft 537 kts 127°
2026-05-04 17:28 64.31127 -3.83573 36867 ft 535 kts 127°
2026-05-04 17:29 64.17926 -3.41861 36888 ft 539 kts 127°
2026-05-04 17:31 64.06822 -3.07360 36901 ft 538 kts 128°
2026-05-04 17:32 63.95652 -2.73181 36905 ft 538 kts 128°
2026-05-04 17:33 63.86670 -2.46072 36895 ft 539 kts 129°
2026-05-04 17:34 63.77613 -2.19060 36910 ft 538 kts 129°
2026-05-04 17:35 63.66223 -1.85546 36916 ft 540 kts 129°
2026-05-04 17:36 63.61629 -1.72170 36916 ft 540 kts 129°
2026-05-04 17:36 63.57023 -1.58835 36925 ft 540 kts 130°
2026-05-04 17:37 63.52407 -1.45552 36921 ft 540 kts 130°
2026-05-04 17:37 63.47824 -1.32439 36927 ft 539 kts 130°
2026-05-04 17:38 63.43192 -1.19262 36922 ft 539 kts 130°
2026-05-04 17:38 63.38540 -1.06110 36919 ft 541 kts 130°
2026-05-04 17:39 63.31552 -0.86494 36924 ft 541 kts 130°
2026-05-04 17:39 63.26857 -0.73409 36927 ft 541 kts 131°
2026-05-04 17:40 63.22154 -0.60378 36933 ft 541 kts 131°
2026-05-04 17:40 63.17436 -0.47379 36934 ft 541 kts 131°
2026-05-04 17:41 63.12705 -0.34422 36893 ft 541 kts 131°
2026-05-04 17:41 63.07956 -0.21490 36933 ft 543 kts 131°
2026-05-04 17:42 63.03991 -0.10749 36933 ft 543 kts 131°
2026-05-04 17:42 62.99210 0.02132 36939 ft 543 kts 132°
2026-05-04 17:43 62.94255 0.14620 36935 ft 541 kts 135°
2026-05-04 17:43 62.89197 0.26814 36936 ft 541 kts 135°
2026-05-04 17:44 62.84142 0.39019 36936 ft 541 kts 135°
2026-05-04 17:44 62.79103 0.51232 36935 ft 541 kts 135°
2026-05-04 17:45 62.74058 0.63434 36933 ft 541 kts 135°
2026-05-04 17:45 62.69003 0.75594 36940 ft 541 kts 135°
2026-05-04 17:46 62.63946 0.87689 37223 ft 539 kts 135°
2026-05-04 17:46 62.61424 0.93697 37481 ft 537 kts 135°
2026-05-04 17:46 62.58906 0.99678 37751 ft 535 kts 135°
2026-05-04 17:47 62.56400 1.05614 38002 ft 533 kts 135°
2026-05-04 17:47 62.53898 1.11522 38268 ft 531 kts 135°
2026-05-04 17:47 62.51406 1.17392 38481 ft 528 kts 136°
2026-05-04 17:47 62.48923 1.23227 38715 ft 526 kts 136°
2026-05-04 17:48 62.46482 1.28946 38890 ft 524 kts 136°
2026-05-04 17:48 62.44001 1.34741 38931 ft 526 kts 136°
2026-05-04 17:48 62.39001 1.46369 38932 ft 533 kts 136°
2026-05-04 17:49 62.33914 1.58143 38926 ft 539 kts 136°
2026-05-04 17:49 62.28789 1.69950 38927 ft 540 kts 136°
2026-05-04 17:50 62.23663 1.81700 38931 ft 539 kts 136°
2026-05-04 17:50 62.18533 1.93393 38923 ft 538 kts 136°
2026-05-04 17:51 62.13405 2.05017 38925 ft 537 kts 136°
2026-05-04 17:51 62.08275 2.16582 38925 ft 536 kts 137°
2026-05-04 17:52 62.03132 2.28116 38925 ft 536 kts 137°
2026-05-04 17:52 61.97986 2.39597 38917 ft 536 kts 137°
2026-05-04 17:53 61.92828 2.51045 38920 ft 536 kts 137°
2026-05-04 17:53 61.87664 2.62446 38904 ft 536 kts 137°
2026-05-04 17:54 61.82484 2.73823 38911 ft 537 kts 137°
2026-05-04 17:54 61.77288 2.85176 38922 ft 537 kts 137°
2026-05-04 17:55 61.72060 2.96433 38919 ft 537 kts 138°
2026-05-04 17:55 61.66846 3.07556 38919 ft 537 kts 138°
2026-05-04 17:56 61.61593 3.18716 38917 ft 537 kts 138°
2026-05-04 17:56 61.56297 3.29919 38916 ft 537 kts 138°
2026-05-04 17:57 61.51066 3.40934 38911 ft 537 kts 138°
2026-05-04 17:57 61.45789 3.51991 38914 ft 537 kts 138°
2026-05-04 17:58 61.40504 3.63007 38914 ft 536 kts 139°
2026-05-04 17:58 61.35213 3.73979 38911 ft 536 kts 139°
2026-05-04 17:59 61.29917 3.84908 38911 ft 536 kts 139°
2026-05-04 18:00 61.21960 4.01224 38922 ft 535 kts 139°
2026-05-04 18:00 61.16652 4.12041 38919 ft 535 kts 139°
2026-05-04 18:01 61.11336 4.22818 38913 ft 535 kts 139°
2026-05-04 18:01 61.06019 4.33546 38921 ft 534 kts 139°
2026-05-04 18:02 60.98037 4.49550 38912 ft 534 kts 139°
2026-05-04 18:02 60.92706 4.60173 38907 ft 534 kts 140°
2026-05-04 18:03 60.87366 4.70761 38909 ft 533 kts 140°
2026-05-04 18:03 60.82018 4.81313 38908 ft 533 kts 140°
2026-05-04 18:04 60.76670 4.91818 38916 ft 532 kts 140°
2026-05-04 18:05 60.68687 5.07398 38913 ft 532 kts 140°
2026-05-04 18:05 60.63333 5.17786 38887 ft 531 kts 141°
2026-05-04 18:06 60.55290 5.33294 38912 ft 531 kts 141°
2026-05-04 18:06 60.49919 5.43588 38903 ft 531 kts 140°
2026-05-04 18:07 60.44545 5.53841 38922 ft 531 kts 141°
2026-05-04 18:07 60.39161 5.64064 38903 ft 531 kts 141°
2026-05-04 18:08 60.33765 5.74264 38894 ft 530 kts 141°
2026-05-04 18:08 60.28377 5.84393 38885 ft 528 kts 141°
2026-05-04 18:09 60.17611 6.04500 38891 ft 528 kts 141°
2026-05-04 18:10 60.12219 6.14497 38873 ft 527 kts 141°
2026-05-04 18:10 60.06861 6.24387 38874 ft 527 kts 141°
2026-05-04 18:11 60.01458 6.34313 38839 ft 527 kts 142°
2026-05-04 18:11 59.96066 6.44171 38877 ft 524 kts 142°
2026-05-04 18:12 59.90688 6.53931 38876 ft 523 kts 142°
2026-05-04 18:12 59.85306 6.63653 38847 ft 521 kts 142°
2026-05-04 18:13 59.79956 6.73281 38854 ft 517 kts 142°
2026-05-04 18:14 59.71957 6.87594 38841 ft 516 kts 142°
2026-05-04 18:14 59.66627 6.97078 38837 ft 513 kts 142°
2026-05-04 18:15 59.56099 7.15691 38827 ft 508 kts 142°
2026-05-04 18:16 59.50834 7.24936 38835 ft 505 kts 143°
2026-05-04 18:16 59.45598 7.34093 38818 ft 503 kts 143°
2026-05-04 18:17 59.37745 7.47748 38799 ft 503 kts 143°
2026-05-04 18:18 59.29840 7.61404 38810 ft 505 kts 143°
2026-05-04 18:18 59.24562 7.70477 38820 ft 506 kts 143°
2026-05-04 18:19 59.16596 7.84094 38816 ft 510 kts 144°
2026-05-04 18:19 59.11239 7.93201 38823 ft 511 kts 144°
2026-05-04 18:20 59.05874 8.02286 38793 ft 511 kts 143°
2026-05-04 18:20 59.00512 8.11327 38823 ft 511 kts 143°
2026-05-04 18:21 58.95179 8.20280 38818 ft 511 kts 144°
2026-05-04 18:21 58.89802 8.29270 38822 ft 511 kts 144°
2026-05-04 18:22 58.84410 8.38243 38827 ft 512 kts 144°
2026-05-04 18:22 58.79002 8.47206 38826 ft 512 kts 144°
2026-05-04 18:23 58.73589 8.56139 38808 ft 512 kts 144°
2026-05-04 18:23 58.68163 8.65054 38825 ft 513 kts 144°
2026-05-04 18:24 58.62726 8.73944 38822 ft 513 kts 144°
2026-05-04 18:24 58.56815 8.81223 38831 ft 499 kts 162°
2026-05-04 18:25 58.50390 8.86163 38834 ft 497 kts 166°
2026-05-04 18:25 58.43880 8.90591 38836 ft 497 kts 167°
2026-05-04 18:26 58.37351 8.94977 38846 ft 497 kts 166°
2026-05-04 18:26 58.30837 8.99398 38847 ft 497 kts 166°
2026-05-04 18:27 58.24333 9.03833 38855 ft 497 kts 166°
2026-05-04 18:27 58.17820 9.08263 38852 ft 497 kts 166°
2026-05-04 18:28 58.11306 9.12675 38860 ft 497 kts 166°
2026-05-04 18:28 58.04833 9.17040 38868 ft 498 kts 166°
2026-05-04 18:29 57.98306 9.21424 38868 ft 498 kts 166°
2026-05-04 18:29 57.91781 9.25787 38889 ft 498 kts 166°
2026-05-04 18:30 57.81984 9.32309 38889 ft 498 kts 166°
2026-05-04 18:31 57.75465 9.36629 38900 ft 497 kts 166°
2026-05-04 18:31 57.68939 9.40938 38900 ft 497 kts 166°
2026-05-04 18:32 57.62413 9.45229 38906 ft 497 kts 166°
2026-05-04 18:32 57.55888 9.49504 38889 ft 497 kts 166°
2026-05-04 18:33 57.49362 9.53763 38921 ft 497 kts 166°
2026-05-04 18:33 57.42842 9.58002 38927 ft 497 kts 166°
2026-05-04 18:34 57.36318 9.62228 38928 ft 496 kts 166°
2026-05-04 18:34 57.30895 9.65729 38939 ft 496 kts 166°
2026-05-04 18:35 57.24385 9.69915 38935 ft 495 kts 165°
2026-05-04 18:35 57.17876 9.74088 38940 ft 495 kts 165°
2026-05-04 18:36 57.11375 9.78238 38936 ft 495 kts 165°
2026-05-04 18:36 57.04874 9.82374 38936 ft 495 kts 165°
2026-05-04 18:37 56.98429 9.86464 38919 ft 480 kts 165°
2026-05-04 18:37 56.92207 9.90397 38946 ft 469 kts 165°
2026-05-04 18:38 56.86037 9.94274 38952 ft 468 kts 165°
2026-05-04 18:38 56.79943 9.98098 38811 ft 455 kts 165°
2026-05-04 18:38 56.76976 9.99957 38637 ft 448 kts 165°
2026-05-04 18:39 56.74017 10.01802 37856 ft 453 kts 166°
2026-05-04 18:39 56.71011 10.03669 37117 ft 459 kts 166°
2026-05-04 18:39 56.67986 10.05553 36563 ft 459 kts 165°
2026-05-04 18:39 56.65035 10.07783 36044 ft 462 kts 158°
2026-05-04 18:40 56.62241 10.10812 35194 ft 475 kts 147°
2026-05-04 18:40 56.59651 10.14646 34406 ft 484 kts 142°
2026-05-04 18:40 56.57119 10.18721 33569 ft 489 kts 142°
2026-05-04 18:40 56.54613 10.22784 32762 ft 492 kts 142°
2026-05-04 18:41 56.52051 10.26928 31961 ft 494 kts 142°
2026-05-04 18:41 56.49474 10.31081 31209 ft 496 kts 142°
2026-05-04 18:41 56.46903 10.35215 30536 ft 495 kts 142°
2026-05-04 18:41 56.44328 10.39344 29893 ft 493 kts 142°
2026-05-04 18:42 56.41766 10.43445 29157 ft 491 kts 142°
2026-05-04 18:42 56.39215 10.47519 28497 ft 488 kts 142°
2026-05-04 18:42 56.36692 10.51539 28020 ft 481 kts 142°
2026-05-04 18:42 56.34194 10.55513 27447 ft 477 kts 142°
2026-05-04 18:43 56.31714 10.59451 26837 ft 474 kts 142°
2026-05-04 18:43 56.29249 10.63356 26276 ft 470 kts 142°
2026-05-04 18:43 56.26798 10.67233 25700 ft 467 kts 142°
2026-05-04 18:43 56.24370 10.71067 25152 ft 463 kts 142°
2026-05-04 18:44 56.21958 10.74867 24611 ft 460 kts 142°
2026-05-04 18:44 56.20370 10.77366 24251 ft 457 kts 142°
2026-05-04 18:44 56.17180 10.82379 23531 ft 453 kts 142°
2026-05-04 18:44 56.14814 10.86089 22919 ft 450 kts 142°
2026-05-04 18:45 56.12464 10.89767 22319 ft 447 kts 142°
2026-05-04 18:45 56.10132 10.93411 21749 ft 443 kts 142°
2026-05-04 18:45 56.07815 10.97026 21140 ft 440 kts 142°
2026-05-04 18:45 56.05519 11.00603 20630 ft 435 kts 142°
2026-05-04 18:46 56.03244 11.04141 20062 ft 432 kts 142°
2026-05-04 18:46 56.01012 11.07606 19542 ft 429 kts 142°
2026-05-04 18:46 55.98734 11.11137 19003 ft 426 kts 142°
2026-05-04 18:46 55.96534 11.14541 18490 ft 423 kts 142°
2026-05-04 18:47 55.94316 11.17967 17930 ft 420 kts 142°
2026-05-04 18:47 55.92112 11.21368 17361 ft 417 kts 142°
2026-05-04 18:47 55.89929 11.24731 16920 ft 411 kts 142°
2026-05-04 18:47 55.87795 11.28017 16700 ft 400 kts 142°
2026-05-04 18:48 55.85721 11.31206 16501 ft 389 kts 143°
2026-05-04 18:48 55.83699 11.34309 16318 ft 378 kts 143°
2026-05-04 18:48 55.81734 11.37320 16139 ft 368 kts 143°
2026-05-04 18:48 55.79816 11.40254 15994 ft 359 kts 143°
2026-05-04 18:49 55.78103 11.43432 15801 ft 357 kts 126°
2026-05-04 18:49 55.77188 11.47474 15633 ft 350 kts 101°
2026-05-04 18:49 55.76893 11.51644 15373 ft 332 kts 96°
2026-05-04 18:49 55.76698 11.55659 14909 ft 322 kts 96°
2026-05-04 18:50 55.76503 11.59590 14361 ft 318 kts 96°
2026-05-04 18:50 55.76298 11.63501 14044 ft 318 kts 96°
2026-05-04 18:50 55.76087 11.67384 13885 ft 314 kts 96°
2026-05-04 18:50 55.75873 11.71227 13668 ft 312 kts 97°
2026-05-04 18:51 55.75656 11.75062 13437 ft 311 kts 97°
2026-05-04 18:51 55.75438 11.78861 13250 ft 307 kts 97°
2026-05-04 18:51 55.75225 11.82570 13040 ft 298 kts 97°
2026-05-04 18:51 55.75017 11.86148 12563 ft 295 kts 97°
2026-05-04 18:52 55.74809 11.89769 12234 ft 295 kts 97°
2026-05-04 18:52 55.74595 11.93373 12057 ft 292 kts 97°
2026-05-04 18:52 55.74382 11.96950 11858 ft 290 kts 97°
2026-05-04 18:52 55.74170 12.00502 11647 ft 289 kts 97°
2026-05-04 18:53 55.73957 12.04040 11433 ft 288 kts 97°
2026-05-04 18:53 55.73745 12.07566 11217 ft 287 kts 97°
2026-05-04 18:53 55.73534 12.11070 10951 ft 284 kts 97°
2026-05-04 18:53 55.73325 12.14530 10470 ft 281 kts 97°
2026-05-04 18:54 55.73113 12.17973 9930 ft 280 kts 97°
2026-05-04 18:54 55.72904 12.21390 9357 ft 277 kts 97°
2026-05-04 18:54 55.72695 12.24770 8798 ft 275 kts 97°
2026-05-04 18:54 55.72488 12.28126 8248 ft 272 kts 97°
2026-05-04 18:55 55.72285 12.31424 7848 ft 266 kts 96°
2026-05-04 18:55 55.71877 12.37976 7574 ft 267 kts 97°
2026-05-04 18:55 55.71670 12.41246 7361 ft 266 kts 97°
2026-05-04 18:56 55.71464 12.44502 7112 ft 266 kts 97°
2026-05-04 18:56 55.71257 12.47759 6865 ft 265 kts 96°
2026-05-04 18:56 55.71259 12.51014 6597 ft 265 kts 78°
2026-05-04 18:56 55.71867 12.54061 6366 ft 260 kts 62°
2026-05-04 18:57 55.72672 12.56905 6045 ft 256 kts 60°
2026-05-04 18:57 55.73488 12.59693 5534 ft 254 kts 60°
2026-05-04 18:57 55.74276 12.62391 4995 ft 252 kts 59°
2026-05-04 18:57 55.75285 12.64909 4575 ft 249 kts 42°
2026-05-04 18:58 55.76537 12.66990 4369 ft 244 kts 38°
2026-05-04 18:58 55.77808 12.68958 4154 ft 241 kts 38°
2026-05-04 18:58 55.79068 12.70900 3900 ft 239 kts 38°
2026-05-04 18:58 55.80285 12.72916 3621 ft 240 kts 46°
2026-05-04 18:59 55.81261 12.75303 3383 ft 239 kts 54°
2026-05-04 18:59 55.82156 12.77780 3137 ft 237 kts 55°
2026-05-04 18:59 55.83021 12.80221 3011 ft 228 kts 55°
2026-05-04 18:59 55.83828 12.82521 3009 ft 216 kts 55°
2026-05-04 19:00 55.84498 12.84855 3002 ft 207 kts 74°
2026-05-04 19:00 55.84419 12.87384 3015 ft 208 kts 111°
2026-05-04 19:00 55.83552 12.89341 3006 ft 206 kts 149°
2026-05-04 19:00 55.82214 12.90108 3021 ft 203 kts 178°
2026-05-04 19:01 55.80800 12.90164 3013 ft 204 kts 184°
2026-05-04 19:01 55.79360 12.90091 3005 ft 205 kts 185°
2026-05-04 19:01 55.78004 12.89928 3035 ft 192 kts 195°
2026-05-04 19:01 55.76826 12.88955 3022 ft 185 kts 221°
2026-05-04 19:02 55.75865 12.87457 3017 ft 184 kts 226°
2026-05-04 19:02 55.74907 12.85944 3016 ft 185 kts 225°
2026-05-04 19:02 55.73939 12.84437 3015 ft 186 kts 225°
2026-05-04 19:02 55.72962 12.82948 2833 ft 184 kts 224°
2026-05-04 19:03 55.72001 12.81468 2569 ft 183 kts 225°
2026-05-04 19:03 55.71045 12.79970 2311 ft 183 kts 225°
2026-05-04 19:03 55.70091 12.78484 2053 ft 181 kts 225°
2026-05-04 19:03 55.69147 12.77017 1796 ft 179 kts 225°
2026-05-04 19:04 55.68229 12.75591 1562 ft 171 kts 225°
2026-05-04 19:04 55.67362 12.74244 1336 ft 159 kts 225°
2026-05-04 19:04 55.66578 12.73025 1132 ft 145 kts 225°
2026-05-04 19:04 55.65848 12.71890 934 ft 136 kts 225°
2026-05-04 19:05 55.65143 12.70794 749 ft 136 kts 225°
2026-05-04 19:05 55.64435 12.69694 557 ft 135 kts 224°
2026-05-04 19:05 55.63725 12.68595 376 ft 136 kts 225°
2026-05-04 19:05 55.63015 12.67487 206 ft 136 kts 223°
2026-05-04 19:06 55.62305 12.66390 42 ft 134 kts 225°
2026-05-04 19:06 55.61695 12.65440 27 ft 92 kts 221°
2026-05-04 19:06 55.61363 12.64927 29 ft 42 kts 223°
2026-05-04 19:06 55.61252 12.64585 28 ft 21 kts 252°
2026-05-04 19:07 55.61207 12.64342 28 ft 21 kts 252°
2026-05-04 19:07 55.61218 12.64137 28 ft 15 kts 316°
2026-05-04 19:07 55.61313 12.64148 28 ft 15 kts 32°
2026-05-04 19:07 55.61401 12.64254 28 ft 17 kts 34°
2026-05-04 19:08 55.61511 12.64377 28 ft 20 kts 32°
2026-05-04 19:08 55.61630 12.64513 28 ft 21 kts 33°
2026-05-04 19:08 55.61729 12.64626 28 ft 15 kts 33°
2026-05-04 19:08 55.61816 12.64725 28 ft 14 kts 33°
2026-05-04 19:09 55.61895 12.64816 28 ft 12 kts 33°
2026-05-04 19:09 55.61929 12.64856 27 ft 0 kts 33°
2026-05-04 19:10 55.61944 12.64873 27 ft 6 kts 33°
2026-05-04 19:10 55.61997 12.64934 28 ft 11 kts 33°
2026-05-04 19:11 55.62066 12.65013 28 ft 12 kts 33°
2026-05-04 19:11 55.62119 12.65074 28 ft 2 kts 33°
2026-05-04 19:11 55.62120 12.65075 28 ft 0 kts 33°
2026-05-04 19:11 55.62124 12.65079 28 ft 2 kts 33°
2026-05-04 19:12 55.62147 12.65103 28 ft 5 kts 22°
2026-05-04 19:12 55.62208 12.65020 28 ft 9 kts 305°
2026-05-04 19:12 55.62255 12.64899 28 ft 14 kts 304°
2026-05-04 19:13 55.62310 12.64747 28 ft 15 kts 302°
2026-05-04 19:13 55.62368 12.64671 28 ft 1 kts 358°
2026-05-04 19:13 55.62388 12.64673 28 ft 5 kts
2026-05-04 19:13 55.62441 12.64673 28 ft 10 kts 355°
2026-05-04 19:14 55.62519 12.64652 28 ft 12 kts 353°
2026-05-04 19:14 55.62610 12.64654 28 ft 13 kts
2026-05-04 19:14 55.62703 12.64691 28 ft 12 kts 25°
2026-05-04 19:14 55.62709 12.64750 28 ft 5 kts 104°
2026-05-04 19:15 55.62686 12.64793 28 ft 6 kts 150°
2026-05-04 19:15 55.62665 12.64848 28 ft 5 kts 102°
2026-05-04 19:15 55.62660 12.64890 28 ft 2 kts 102°
2026-05-04 19:15 55.62659 12.64899 28 ft 1 kts 102°
2026-05-04 19:16 55.62659 12.64904 28 ft 0 kts 102°